Westminster, MD

11:45 PM EST on November 21, 2019 (GMT -0500)
Carroll County Regional-Poage

Weather History for KDMW - September, 2019

Change the Weather History Date:

Thursday, September 5, 2019

  Actual Average (KTHV) Record (KTHV)
Temperature  
Mean Temperature 70 °F -  
Max Temperature 77 °F 0 °F 91 °F (2018)
Min Temperature 64 °F - 42 °F (1997)
Cooling Degree Days 6    
Growing Degree Days 20 (Base 50)    
Moisture  
Dew Point 61 °F    
Average Humidity 71    
Maximum Humidity 88    
Minimum Humidity 57    
Precipitation  
Precipitation 0.00 in - - ()
Sea Level Pressure  
Sea Level Pressure 30.06 in    
Wind  
Wind Speed 4 mph (NE)    
Max Wind Speed 8 mph    
Max Gust Speed -    
Visibility 10 miles    
Events      
Averages and records for this station are not official NWS values.
T = Trace of Precipitation, MM = Missing Value Source: NWS Daily Summary

Daily Weather History Graph

Daily Weather History Graph

Search for Another Location

Airport or City:

Astronomy

Sep. 05, 2019 Rise Set
Actual Time 6:39 AM EDT 7:33 PM EDT
Civil Twilight 6:12 AM EDT 8:00 PM EDT
Nautical Twilight 5:39 AM EDT 8:32 PM EDT
Astronomical Twilight 5:05 AM EDT 9:06 PM EDT
Moon 1:42 PM EDT (9/5) 11:48 PM EDT (9/5)
Length of Visible Light 13h 48m
Length of Day
12h 53m
Waxing Crescent, 45% of the Moon is Illuminated
Sep 5
Waxing Crescent
Sep 5
First Quarter
Sep 14
Full
Sep 21
Last Quarter
Sep 28
New

Hourly Weather History & Observations

Time (EDT) Temp. Dew Point Humidity Pressure Visibility Wind Dir Wind Speed Gust Speed Precip Events Conditions
12:00 AM 75.2 °F 62.6 °F 65% 30.01 in 10.0 mi North 5.8 mph - N/A   Clear
12:20 AM 75.2 °F 62.6 °F 65% 30.01 in 10.0 mi North 6.9 mph - N/A   Clear
12:40 AM 75.2 °F 62.6 °F 65% 30.02 in 10.0 mi North 4.6 mph - N/A   Clear
1:00 AM 73.4 °F 62.6 °F 69% 30.03 in 10.0 mi NE 4.6 mph - N/A   Clear
1:20 AM 73.4 °F 62.6 °F 69% 30.04 in 10.0 mi NNE 3.5 mph - N/A   Clear
1:40 AM 73.4 °F 62.6 °F 69% 30.04 in 10.0 mi Calm Calm - N/A   Clear
2:00 AM 71.6 °F 62.6 °F 73% 30.04 in 10.0 mi Calm Calm - N/A   Clear
2:20 AM 71.6 °F 62.6 °F 73% 30.04 in 10.0 mi NNE 3.5 mph - N/A   Clear
2:40 AM 71.6 °F 62.6 °F 73% 30.04 in 10.0 mi NNE 3.5 mph - N/A   Clear
3:00 AM 69.8 °F 60.8 °F 73% 30.04 in 10.0 mi NNE 3.5 mph - N/A   Clear
3:20 AM 69.8 °F 60.8 °F 73% 30.04 in - North 4.6 mph - N/A   Clear
3:40 AM 69.8 °F 60.8 °F 73% 30.04 in 10.0 mi North 8.1 mph - N/A   Clear
4:00 AM 69.8 °F 60.8 °F 73% 30.05 in 1.0 mi North 5.8 mph - N/A   Clear
4:20 AM 68.0 °F 60.8 °F 78% 30.05 in 1.0 mi North 4.6 mph - N/A   Clear
4:40 AM 68.0 °F 60.8 °F 78% 30.06 in 10.0 mi North 4.6 mph - N/A   Clear
5:40 AM 66.2 °F 60.8 °F 83% 30.06 in 10.0 mi NE 4.6 mph - N/A   Clear
6:00 AM 66.2 °F 60.8 °F 83% 30.07 in 1.0 mi NE 4.6 mph - N/A   Clear
6:20 AM 66.2 °F 60.8 °F 83% 30.07 in 10.0 mi NNE 3.5 mph - N/A   Clear
6:40 AM 66.2 °F 60.8 °F 83% 30.08 in 10.0 mi ENE 3.5 mph - N/A   Scattered Clouds
7:00 AM 66.2 °F 60.8 °F 83% 30.08 in 10.0 mi Calm Calm - N/A   Scattered Clouds
7:20 AM 64.4 °F 60.8 °F 88% 30.09 in 10.0 mi Calm Calm - N/A   Clear
7:40 AM 66.2 °F 60.8 °F 83% 30.09 in 10.0 mi NE 3.5 mph - N/A   Clear
8:00 AM 66.2 °F 60.8 °F 83% 30.09 in 10.0 mi NNE 6.9 mph - N/A   Unknown
8:20 AM 66.2 °F 60.8 °F 83% 30.09 in 10.0 mi ENE 4.6 mph - N/A   Clear
9:00 AM 66.2 °F 60.8 °F 83% 30.10 in 10.0 mi NNE 5.8 mph - N/A   Clear
9:20 AM 68.0 °F 59.0 °F 73% 30.11 in 10.0 mi NE 6.9 mph - N/A   Clear
9:40 AM 68.0 °F 59.0 °F 73% 30.12 in 10.0 mi NE 6.9 mph - N/A   Clear
10:00 AM 69.8 °F 59.0 °F 68% 30.11 in 10.0 mi NNE 4.6 mph - N/A   Mostly Cloudy
10:20 AM 69.8 °F 59.0 °F 68% 30.10 in 10.0 mi NE 5.8 mph - N/A   Overcast
10:40 AM 69.8 °F 60.8 °F 73% 30.10 in 10.0 mi NE 6.9 mph - N/A   Overcast
11:00 AM 71.6 °F 60.8 °F 69% 30.10 in 10.0 mi NNE 3.5 mph - N/A   Overcast
11:20 AM 71.6 °F 60.8 °F 69% 30.10 in 10.0 mi NNE 5.8 mph - N/A   Overcast
11:40 AM 73.4 °F 60.8 °F 65% 30.10 in 10.0 mi NE 5.8 mph - N/A   Overcast
12:00 PM 73.4 °F 60.8 °F 65% 30.10 in 10.0 mi ENE 5.8 mph - N/A   Overcast
12:20 PM 73.4 °F 60.8 °F 65% 30.09 in 10.0 mi NE 3.5 mph - N/A   Overcast
12:40 PM 73.4 °F 60.8 °F 65% 30.09 in 10.0 mi NE 5.8 mph - N/A   Overcast
1:00 PM 75.2 °F 60.8 °F 61% 30.09 in 10.0 mi North 5.8 mph - N/A   Overcast
1:20 PM 75.2 °F 60.8 °F 61% 30.09 in 10.0 mi North 5.8 mph - N/A   Mostly Cloudy
1:40 PM 75.2 °F 60.8 °F 61% 30.09 in 10.0 mi NNE 4.6 mph - N/A   Scattered Clouds
2:00 PM 75.2 °F 60.8 °F 61% 30.08 in 10.0 mi North 5.8 mph - N/A   Clear
2:20 PM 75.2 °F 60.8 °F 61% 30.08 in 10.0 mi North 4.6 mph - N/A   Clear
2:40 PM 75.2 °F 60.8 °F 61% 30.07 in 10.0 mi NE 6.9 mph - N/A   Scattered Clouds
3:00 PM 77.0 °F 60.8 °F 57% 30.07 in 10.0 mi NE 5.8 mph - N/A   Scattered Clouds
3:20 PM 77.0 °F 60.8 °F 57% 30.06 in 10.0 mi North 4.6 mph - N/A   Scattered Clouds
3:40 PM - - N/A% 30.05 in 10.0 mi North 4.6 mph - N/A   Overcast
4:00 PM 75.2 °F 60.8 °F 61% 30.05 in 10.0 mi NE 4.6 mph - N/A   Mostly Cloudy
4:20 PM 75.2 °F 60.8 °F 61% 30.04 in 10.0 mi NE 6.9 mph - N/A   Scattered Clouds
4:40 PM 75.2 °F 60.8 °F 61% 30.04 in 10.0 mi NE 5.8 mph - N/A   Scattered Clouds
5:00 PM 75.2 °F 60.8 °F 61% 30.03 in 10.0 mi NE 6.9 mph - N/A   Scattered Clouds
5:20 PM 75.2 °F 62.6 °F 65% 30.04 in 10.0 mi NE 5.8 mph - N/A   Clear
5:40 PM 75.2 °F 60.8 °F 61% 30.03 in 10.0 mi ENE 5.8 mph - N/A   Clear
6:00 PM 73.4 °F 60.8 °F 65% 30.04 in 10.0 mi NE 5.8 mph - N/A   Clear
6:20 PM 73.4 °F 60.8 °F 65% 30.05 in 10.0 mi NE 4.6 mph - N/A   Mostly Cloudy
6:40 PM 73.4 °F 62.6 °F 69% 30.05 in 10.0 mi ENE 3.5 mph - N/A   Overcast
7:00 PM 73.4 °F 62.6 °F 69% 30.05 in 10.0 mi Calm Calm - N/A   Mostly Cloudy
7:20 PM 71.6 °F 62.6 °F 73% 30.04 in 10.0 mi NE 3.5 mph - N/A   Unknown
7:40 PM 71.6 °F 62.6 °F 73% 30.04 in 10.0 mi NNE 3.5 mph - N/A   Overcast
8:00 PM 71.6 °F 62.6 °F 73% 30.03 in 10.0 mi NNE 3.5 mph - N/A   Mostly Cloudy
8:20 PM 69.8 °F 62.6 °F 78% 30.03 in 10.0 mi Calm Calm - N/A   Unknown
8:40 PM 69.8 °F 62.6 °F 78% 30.04 in 10.0 mi NE 3.5 mph - N/A   Scattered Clouds
9:00 PM 69.8 °F 62.6 °F 78% 30.04 in 10.0 mi Calm Calm - N/A   Mostly Cloudy
9:20 PM 69.8 °F 60.8 °F 73% 30.04 in 10.0 mi ENE 3.5 mph - N/A   Overcast
9:40 PM 69.8 °F 60.8 °F 73% 30.04 in 10.0 mi NNE 3.5 mph - N/A   Overcast
10:00 PM 69.8 °F 60.8 °F 73% 30.03 in 10.0 mi North 3.5 mph - N/A   Mostly Cloudy
10:20 PM 69.8 °F 60.8 °F 73% 30.03 in 10.0 mi ENE 3.5 mph - N/A   Scattered Clouds
10:40 PM 69.8 °F 60.8 °F 73% 30.03 in 10.0 mi Calm Calm - N/A   Scattered Clouds
11:00 PM 68.0 °F 60.8 °F 78% 30.02 in 10.0 mi Calm Calm - N/A   Clear
11:20 PM 68.0 °F 60.8 °F 78% 30.01 in 10.0 mi NE 3.5 mph - N/A   Clear
11:40 PM 66.2 °F 60.8 °F 83% 30.01 in 10.0 mi Calm Calm - N/A   Clear